current

24-hour

48-hour

Mouse Over Maps to Enlarge or pause. Click here for the Kentucky Ag Weather Synopsis Webcast
Mouseover to pause! Click here to zoom! Updated Friday, March 22, 2019

...Dry Today & Saturday, Seasonal Temperatures Into The Weekend...

Dry weather ahead for today and Saturday. Gusty northwest winds Friday afternoon to early evening. High pressure centers over the region Saturday with clear skies and light winds. Rain chances return Sunday afternoon through early Tuesday morning with a chance of thunderstorms Monday afternoon.

The medium-range outlooks for the period March 27th, to the following April 4th, call for Near normal temperatures and Above normal rainfall.

Kentucky Weather Forecast

Western KY:
Central KY:
Eastern KY:

Specific and detailed farm-by-farm weather forecast information is available in your Point Ag Forecast. New County Ag Weather Page, Current Conditions:Kentucky
, U.S.
Mouseover to pause! Click here to zoom!
Mouseover to pause!

627 
ASUS43 KLMK 221710
RWRKY 
KENTUCKY REGIONAL WEATHER ROUNDUP
NATIONAL WEATHER SERVICE LOUISVILLE KY
100 PM EDT FRI MAR 22 2019

NOTE "FAIR" INDICATES FEW OR NO CLOUDS BELOW 12,000 FEET
WITH NO SIGNIFICANT WEATHER AND/OR OBSTRUCTIONS TO VISIBILITY.

KYZ001>023-026-027-061>063-070>075-221800-
WESTERN AND SOUTH CENTRAL KENTUCKY
  
CITY           SKY/WX    TMP DP  RH WIND       PRES   REMARKS
PADUCAH        FAIR      61  36  39 W12G17    30.12F                  
HENDERSON      FAIR      53  40  61 W15G22    30.11R                  
OWENSBORO      FAIR      54  39  57 NW14G20   30.09S                  
HOPKINSVILLE   NOT AVBL                                               
BOWLING GREEN  FAIR      60  33  36 W14G23    30.07F                  
GLASGOW        FAIR      57  33  41 W14G22    30.06S                  
$$

KYZ024-025-028>034-038-045-046-053-221800-
NORTH CENTRAL KENTUCKY
  
CITY           SKY/WX    TMP DP  RH WIND       PRES   REMARKS
LOUISVILLE/SDF FAIR      57  34  41 W15G24    30.02S                  
LOUISVILLE/LOU FAIR      54  35  48 W15G24    30.02S                  
FORT KNOX      NOT AVBL                                               
$$

KYZ035>037-039>044-047>052-055>060-089>105-221800-
NORTHEAST KENTUCKY
  
CITY           SKY/WX    TMP DP  RH WIND       PRES   REMARKS
LEXINGTON      FAIR      53  36  52 W18G25    29.97F                  
COVINGTON      PTSUNNY   46  31  55 N17G28    29.98R                  
FRANKFORT      FAIR      54  36  50 W14G24    29.98S                  
$$

KYZ054-064>069-076>088-106>120-221800-
SOUTHEAST KENTUCKY
  
CITY           SKY/WX    TMP DP  RH WIND       PRES   REMARKS
JACKSON        PTSUNNY   52  32  46 NW12G23   29.92F                  
LONDON         FAIR      54  35  48 W20G30    29.97F                  
SOMERSET       FAIR      54  32  43 W13G24    30.02F                  
MIDDLESBORO    FAIR      55  34  43 NW8       29.99F                  
MONTICELLO     FAIR      56  35  45 W18G29    30.04F                  
$$

  


 Mouseover to pause! Click here  to zoom!


Mouseover to pause!...... Western KY .TODAY...Sunny. Highs in the mid 60s. Northwest winds 5 to 10 mph. Central KY .TODAY...Partly cloudy. Highs in the lower 50s. West winds 5 to 15 mph shifting to the northwest 15 to 20 mph in the afternoon. Eastern KY .REST OF TODAY...Partly cloudy. Sprinkles possible during the afternoon. Highs around 50. West winds around 10 mph. Gusts up to 25 mph during the afternoon.